Weather in Drovyanaya

Russia / Yamalo-Nenets Autonomous Okrug     72°24′46″N   72°46′01″E
temp.,
°C
wind,
m/s
gust,
m/s
humid.,
%
clouds,
%
prec.,
mm/h
press.,
hPa
HPBL,
m
27 february, sat
sat2723:00−22ssw459486 0.1 101834
02:00−21ssw459291 0.0 101870
05:00−22s458886 0.0 101941
08:00−23ssw558764 0.0 101962
11:00−23ssw588960 0.0 1019116
14:00−22s579585 0.0 1019114
17:00−20s6119792 0.0 1018211
20:00−20s71395100 0.0 1017272
28 february, sun
sun2823:00−20s81393100 0.0 1017311
02:00−21ssw81392100 0.0 1016305
05:00−22s81393100 0.0 1016335
08:00−22s81392100 0.0 1016333
11:00−21s91492100 0.0 1015428
14:00−21s91393100 0.0 1015464
17:00−22s81393100 0.0 1015384
20:00−22s81292100 0.0 1014373
1 march, mon
mon123:00−22s81292100 0.0 1014399
02:00−22s81296100 0.2 1012417
05:00−22s81197100 0.6 1011396
08:00−23s81196100 0.3 1010401
11:00−22s81194100 0.4 1009420
14:00−21s91294100 0.1 1007481
17:00−21sse91494100 0.2 1006464
20:00−21sse101594100 0.1 1005477
2 march, tue
tue223:00−21sse111695100 0.1 1003421
02:00−21sse111696100 0.3 1002459
05:00−20sse111695100 0.6 1001484
08:00−21sse101593100 0.2 1001506
11:00−20sse101592100 0.2 1001594
14:00−19sse101494100 0.1 1001685
17:00−18sse101494100 0.6 1002765
20:00−17sse91294100 0.3 1002660
3 march, wed
wed323:00−17sse91394100 0.7 1002613
02:00−17sse91393100 0.3 1002526
05:00−17sse91294100 0.6 1002514
08:00−17sse91392100 0.3 1002555
11:00−17sse91293100 0.4 1003685
14:00−17sse91294100 0.5 1003689
17:00−17sse91394100 0.9 1003692
20:00−17sse91395100 0.5 1003740